,,Stat5,,Stat1,,Stat2,,Stat3,,Stat4,,Wind1,,Wind1,
time,status,PA1M_AVG,status,PR1M_SUM,status,RH1M_AVG,status,SR1M_AVG,status,TA1M_AVG,status,W1dAve1m,status,W1sAve1m,
2002-04-18, 00:00:00,VALID,917.685,VALID,0,VALID,99.1496,VALID,-0.0339617,VALID,19.1883,VALID,95,VALID,0.897236,
2002-04-18, 00:01:00,VALID,917.694,VALID,0,VALID,99.0783,VALID,0,VALID,19.1366,VALID,93,VALID,0.787695,
2002-04-18, 00:02:00,VALID,917.672,VALID,0,VALID,99.0771,VALID,0,VALID,19.1106,VALID,93,VALID,0.864515,
2002-04-18, 00:03:00,VALID,917.686,VALID,0,VALID,99.0923,VALID,-0.0169808,VALID,19.1108,VALID,94,VALID,0.795819,
2002-04-18, 00:04:00,VALID,917.681,VALID,0,VALID,99.0669,VALID,0,VALID,19.0917,VALID,84,VALID,0.892525,
2002-04-18, 00:05:00,VALID,917.663,VALID,0,VALID,99.0644,VALID,0,VALID,19.0559,VALID,83,VALID,1.00761,
2002-04-18, 00:06:00,VALID,917.648,VALID,0,VALID,99.0745,VALID,-0.0169808,VALID,19.039,VALID,94,VALID,1.10016,
2002-04-18, 00:07:00,VALID,917.621,VALID,0,VALID,99.1203,VALID,-0.0509425,VALID,19.0988,VALID,103,VALID,1.14063,
2002-04-18, 00:08:00,VALID,917.596,VALID,0,VALID,99.1254,VALID,-0.101885,VALID,19.1185,VALID,103,VALID,0.773232,
2002-04-18, 00:09:00,VALID,917.571,VALID,0,VALID,99.1279,VALID,-0.0679233,VALID,19.1443,VALID,115,VALID,1.0301,
2002-04-18, 00:10:00,VALID,917.576,VALID,0,VALID,99.1089,VALID,-0.0679233,VALID,19.1895,VALID,102,VALID,0.905194,
2002-04-18, 00:11:00,VALID,917.569,VALID,0,VALID,99.0389,VALID,-0.101885,VALID,19.19,VALID,94,VALID,0.837776,
2002-04-18, 00:12:00,VALID,917.578,VALID,0,VALID,98.9232,VALID,-0.0849042,VALID,19.1542,VALID,96,VALID,0.975911,
2002-04-18, 00:13:00,VALID,917.601,VALID,0,VALID,98.8851,VALID,-0.101885,VALID,19.152,VALID,102,VALID,0.782652,
2002-04-18, 00:14:00,VALID,917.625,VALID,0,VALID,98.8151,VALID,-0.101885,VALID,19.1284,VALID,109,VALID,0.71875,
2002-04-18, 00:15:00,VALID,917.64,VALID,0,VALID,98.7312,VALID,-0.118866,VALID,19.0993,VALID,93,VALID,0.792558,
2002-04-18, 00:16:00,VALID,917.654,VALID,0,VALID,98.7579,VALID,-0.101885,VALID,19.0834,VALID,99,VALID,0.722321,
2002-04-18, 00:17:00,VALID,917.658,VALID,0,VALID,98.7147,VALID,-0.118866,VALID,19.0802,VALID,94,VALID,0.722852,
2002-04-18, 00:18:00,VALID,917.668,VALID,0,VALID,98.6689,VALID,-0.0849042,VALID,19.0638,VALID,89,VALID,0.76734,
2002-04-18, 00:19:00,VALID,917.661,VALID,0,VALID,98.5926,VALID,-0.118866,VALID,19.032,VALID,94,VALID,0.588672,
2002-04-18, 00:20:00,VALID,917.648,VALID,0,VALID,98.5366,VALID,-0.101885,VALID,19.0001,VALID,88,VALID,0.527734,
2002-04-18, 00:21:00,VALID,917.628,VALID,0,VALID,98.5214,VALID,-0.118866,VALID,18.9644,VALID,86,VALID,0.419202,
2002-04-18, 00:22:00,VALID,917.62,VALID,0,VALID,98.6549,VALID,-0.0679233,VALID,18.9674,VALID,97,VALID,0.395559,
2002-04-18, 00:23:00,VALID,917.604,VALID,0,VALID,98.5989,VALID,0.0169808,VALID,18.9821,VALID,96,VALID,0.309416,
2002-04-18, 00:24:00,VALID,917.585,VALID,0,VALID,98.6307,VALID,0,VALID,18.9853,VALID,110,VALID,0.526042,
2002-04-18, 00:25:00,VALID,917.563,VALID,0,VALID,98.6167,VALID,0.0169808,VALID,18.9975,VALID,116,VALID,0.349507,
2002-04-18, 00:26:00,VALID,917.559,VALID,0,VALID,98.5405,VALID,0,VALID,18.9945,VALID,120,VALID,0.449013,
2002-04-18, 00:27:00,VALID,917.554,VALID,0,VALID,98.454,VALID,0,VALID,18.9945,VALID,115,VALID,0.467142,
2002-04-18, 00:28:00,VALID,917.565,VALID,0,VALID,98.2925,VALID,0.0169808,VALID,18.9558,VALID,115,VALID,0.404687,
2002-04-18, 00:29:00,VALID,917.552,VALID,0,VALID,98.2582,VALID,0.0339617,VALID,18.9465,VALID,116,VALID,0.397748,
2002-04-18, 00:30:00,VALID,917.538,VALID,0,VALID,98.2531,VALID,0,VALID,18.9209,VALID,117,VALID,0.369932,
2002-04-18, 00:31:00,VALID,917.536,VALID,0,VALID,98.2696,VALID,0.0169808,VALID,18.9274,VALID,117,VALID,0.285056,
2002-04-18, 00:32:00,VALID,917.515,VALID,0,VALID,98.2734,VALID,-0.0169808,VALID,18.9142,VALID,132,VALID,0.410268,
2002-04-18, 00:33:00,VALID,917.5,VALID,0,VALID,98.3052,VALID,-0.0169808,VALID,18.917,VALID,149,VALID,0.847245,
2002-04-18, 00:34:00,VALID,917.468,VALID,0,VALID,98.3192,VALID,0,VALID,18.9433,VALID,150,VALID,0.667188,
2002-04-18, 00:35:00,VALID,917.452,VALID,0,VALID,98.2607,VALID,0,VALID,18.9597,VALID,151,VALID,0.825391,
2002-04-18, 00:36:00,VALID,917.427,VALID,0,VALID,98.22,VALID,0,VALID,18.9595,VALID,152,VALID,0.760547,
2002-04-18, 00:37:00,VALID,917.411,VALID,0,VALID,98.2022,VALID,0,VALID,18.9657,VALID,146,VALID,0.909455,
2002-04-18, 00:38:00,VALID,917.402,VALID,0,VALID,98.2505,VALID,0.0169808,VALID,18.9885,VALID,142,VALID,0.973758,
2002-04-18, 00:39:00,VALID,917.406,VALID,0,VALID,98.2467,VALID,0,VALID,18.9945,VALID,139,VALID,0.943462,
2002-04-18, 00:40:00,VALID,917.403,VALID,0,VALID,98.2251,VALID,0.0339617,VALID,19.0012,VALID,138,VALID,0.910895,
2002-04-18, 00:41:00,VALID,917.405,VALID,0,VALID,98.2162,VALID,0.0339617,VALID,19.0144,VALID,140,VALID,0.656867,
2002-04-18, 00:42:00,VALID,917.415,VALID,0,VALID,98.2225,VALID,0.0339617,VALID,19.0171,VALID,134,VALID,0.499399,
2002-04-18, 00:43:00,VALID,917.412,VALID,0,VALID,98.2225,VALID,0.0169808,VALID,19.0104,VALID,107,VALID,0.603618,
2002-04-18, 00:44:00,VALID,917.408,VALID,0,VALID,98.3039,VALID,0.0169808,VALID,19.034,VALID,115,VALID,0.849507,
2002-04-18, 00:45:00,VALID,917.417,VALID,0,VALID,98.3128,VALID,0,VALID,19.0501,VALID,105,VALID,0.829044,
2002-04-18, 00:46:00,VALID,917.399,VALID,0,VALID,98.2861,VALID,0,VALID,19.0531,VALID,103,VALID,0.678632,
2002-04-18, 00:47:00,VALID,917.396,VALID,0,VALID,98.2556,VALID,0,VALID,19.0566,VALID,103,VALID,0.693934,
2002-04-18, 00:48:00,VALID,917.378,VALID,0,VALID,98.2225,VALID,0.0169808,VALID,19.0462,VALID,112,VALID,0.700304,
2002-04-18, 00:49:00,VALID,917.381,VALID,0,VALID,98.2276,VALID,0,VALID,19.043,VALID,116,VALID,0.792468,
2002-04-18, 00:50:00,VALID,917.37,VALID,0,VALID,98.1335,VALID,0,VALID,19.0236,VALID,131,VALID,0.548214,
2002-04-18, 00:51:00,VALID,917.38,VALID,0,VALID,98.0661,VALID,0.0169808,VALID,18.9913,VALID,137,VALID,0.638158,
2002-04-18, 00:52:00,VALID,917.377,VALID,0,VALID,98.0916,VALID,0,VALID,18.9888,VALID,134,VALID,0.690848,
2002-04-18, 00:53:00,VALID,917.369,VALID,0,VALID,98.1119,VALID,-0.0339617,VALID,18.9662,VALID,123,VALID,0.607422,
2002-04-18, 00:54:00,VALID,917.354,VALID,0,VALID,98.07,VALID,0,VALID,18.953,VALID,114,VALID,0.924162,
2002-04-18, 00:55:00,VALID,917.33,VALID,0,VALID,98.0534,VALID,-0.0509425,VALID,18.9239,VALID,101,VALID,1.04668,
2002-04-18, 00:56:00,VALID,917.305,VALID,0,VALID,98.234,VALID,-0.0509425,VALID,18.9175,VALID,101,VALID,1.31465,
2002-04-18, 00:57:00,VALID,917.289,VALID,0,VALID,98.0382,VALID,-0.0509425,VALID,18.8953,VALID,95,VALID,1.18483,
2002-04-18, 00:58:00,VALID,917.258,VALID,0,VALID,98.3599,VALID,-0.0169808,VALID,18.8854,VALID,97,VALID,1.25863,
2002-04-18, 00:59:00,VALID,917.231,VALID,0,VALID,98.5583,VALID,-0.0509425,VALID,18.9371,VALID,104,VALID,1.08532,
2002-04-18, 01:00:00,VALID,917.213,VALID,0,VALID,98.5659,VALID,-0.0339617,VALID,18.9828,VALID,120,VALID,0.696114,
2002-04-18, 01:01:00,VALID,917.189,VALID,0,VALID,98.4502,VALID,-0.0339617,VALID,18.9699,VALID,126,VALID,0.815173,
2002-04-18, 01:02:00,VALID,917.181,VALID,0,VALID,98.3853,VALID,-0.0679233,VALID,18.9311,VALID,134,VALID,0.866982,
2002-04-18, 01:03:00,VALID,917.168,VALID,0,VALID,98.3573,VALID,-0.0509425,VALID,18.8986,VALID,138,VALID,0.884881,
2002-04-18, 01:04:00,VALID,917.165,VALID,0,VALID,98.3942,VALID,-0.0169808,VALID,18.869,VALID,143,VALID,1.12817,
2002-04-18, 01:05:00,VALID,917.13,VALID,0,VALID,98.412,VALID,-0.0509425,VALID,18.8372,VALID,134,VALID,0.652114,
2002-04-18, 01:06:00,VALID,917.127,VALID,0,VALID,98.3993,VALID,-0.0169808,VALID,18.8047,VALID,117,VALID,0.646959,
2002-04-18, 01:07:00,VALID,917.097,VALID,0,VALID,98.4489,VALID,-0.0509425,VALID,18.7691,VALID,95,VALID,1.00741,
2002-04-18, 01:08:00,VALID,917.089,VALID,0,VALID,98.5519,VALID,-0.0169808,VALID,18.7408,VALID,93,VALID,1.19732,
2002-04-18, 01:09:00,VALID,917.065,VALID,0,VALID,98.7121,VALID,-0.0169808,VALID,18.7401,VALID,103,VALID,1.066,
2002-04-18, 01:10:00,VALID,917.048,VALID,0,VALID,98.7147,VALID,-0.0169808,VALID,18.747,VALID,125,VALID,0.807366,
2002-04-18, 01:11:00,VALID,917.024,VALID,0,VALID,98.8151,VALID,0,VALID,18.7341,VALID,124,VALID,0.766992,
2002-04-18, 01:12:00,VALID,916.995,VALID,0,VALID,98.7922,VALID,-0.0169808,VALID,18.7145,VALID,122,VALID,0.79707,
2002-04-18, 01:13:00,VALID,916.984,VALID,0,VALID,98.9143,VALID,-0.0509425,VALID,18.7343,VALID,120,VALID,0.844952,
2002-04-18, 01:14:00,VALID,916.973,VALID,0,VALID,98.9105,VALID,-0.0339617,VALID,18.7278,VALID,106,VALID,0.911058,
2002-04-18, 01:15:00,VALID,916.965,VALID,0,VALID,98.9512,VALID,-0.0509425,VALID,18.714,VALID,103,VALID,1.07956,
2002-04-18, 01:16:00,VALID,916.962,VALID,0,VALID,99.03,VALID,-0.0169808,VALID,18.7599,VALID,115,VALID,1.10663,
2002-04-18, 01:17:00,VALID,916.971,VALID,0,VALID,99.0542,VALID,-0.0339617,VALID,18.7689,VALID,112,VALID,1.10794,
2002-04-18, 01:18:00,VALID,916.956,VALID,0,VALID,99.0631,VALID,0,VALID,18.7857,VALID,117,VALID,1.10917,
2002-04-18, 01:19:00,VALID,916.963,VALID,0,VALID,99.0593,VALID,0,VALID,18.789,VALID,115,VALID,0.977179,
2002-04-18, 01:20:00,VALID,916.945,VALID,0,VALID,99.0478,VALID,-0.0169808,VALID,18.7624,VALID,126,VALID,0.81065,
2002-04-18, 01:21:00,VALID,916.932,VALID,0,VALID,99.0287,VALID,-0.0169808,VALID,18.7433,VALID,126,VALID,0.592831,
2002-04-18, 01:22:00,VALID,916.916,VALID,0,VALID,99.0338,VALID,-0.0339617,VALID,18.7271,VALID,118,VALID,0.526605,
2002-04-18, 01:23:00,VALID,916.911,VALID,0,VALID,99.0605,VALID,-0.0339617,VALID,18.7073,VALID,124,VALID,0.647748,
2002-04-18, 01:24:00,VALID,916.885,VALID,0,VALID,99.0936,VALID,-0.0169808,VALID,18.7237,VALID,123,VALID,0.935981,
2002-04-18, 01:25:00,VALID,916.862,VALID,0,VALID,99.1241,VALID,0,VALID,18.7468,VALID,113,VALID,0.986378,
2002-04-18, 01:26:00,VALID,916.846,VALID,0,VALID,99.1534,VALID,-0.0339617,VALID,18.782,VALID,108,VALID,1.16317,
2002-04-18, 01:27:00,VALID,916.838,VALID,0,VALID,99.1521,VALID,-0.0509425,VALID,18.792,VALID,95,VALID,0.921053,
2002-04-18, 01:28:00,VALID,916.839,VALID,0,VALID,99.1343,VALID,0,VALID,18.7917,VALID,89,VALID,0.979018,
2002-04-18, 01:29:00,VALID,916.832,VALID,0,VALID,99.1585,VALID,-0.0509425,VALID,18.8116,VALID,98,VALID,1.01934,
2002-04-18, 01:30:00,VALID,916.826,VALID,0,VALID,99.1292,VALID,-0.0509425,VALID,18.8049,VALID,84,VALID,1.19989,
2002-04-18, 01:31:00,VALID,916.816,VALID,0,VALID,99.0567,VALID,-0.0509425,VALID,18.7564,VALID,82,VALID,1.23574,
2002-04-18, 01:32:00,VALID,916.808,VALID,0,VALID,99.0262,VALID,-0.0339617,VALID,18.7408,VALID,91,VALID,1.33926,
2002-04-18, 01:33:00,VALID,916.793,VALID,0,VALID,99.0504,VALID,-0.0339617,VALID,18.7368,VALID,92,VALID,1.33326,
2002-04-18, 01:34:00,VALID,916.793,VALID,0,VALID,99.0109,VALID,-0.0339617,VALID,18.7336,VALID,92,VALID,1.23561,
2002-04-18, 01:35:00,VALID,916.793,VALID,0,VALID,98.9703,VALID,-0.0339617,VALID,18.7179,VALID,91,VALID,1.10752,
2002-04-18, 01:36:00,VALID,916.773,VALID,0,VALID,98.9308,VALID,0,VALID,18.6916,VALID,100,VALID,0.821715,
2002-04-18, 01:37:00,VALID,916.759,VALID,0,VALID,98.9868,VALID,-0.0339617,VALID,18.705,VALID,111,VALID,0.994655,
2002-04-18, 01:38:00,VALID,916.749,VALID,0,VALID,98.9346,VALID,-0.0169808,VALID,18.7082,VALID,100,VALID,0.823602,
2002-04-18, 01:39:00,VALID,916.733,VALID,0,VALID,98.9016,VALID,-0.0169808,VALID,18.6985,VALID,104,VALID,0.956342,
2002-04-18, 01:40:00,VALID,916.717,VALID,0,VALID,98.8596,VALID,-0.0169808,VALID,18.6889,VALID,111,VALID,0.8125,
2002-04-18, 01:41:00,VALID,916.696,VALID,0,VALID,98.8393,VALID,0,VALID,18.666,VALID,112,VALID,0.888097,
2002-04-18, 01:42:00,VALID,916.677,VALID,0,VALID,98.8062,VALID,-0.0169808,VALID,18.6595,VALID,119,VALID,0.596917,
2002-04-18, 01:43:00,VALID,916.648,VALID,0,VALID,98.7884,VALID,-0.0169808,VALID,18.66,VALID,108,VALID,0.73097,
2002-04-18, 01:44:00,VALID,916.627,VALID,0,VALID,98.8037,VALID,-0.0169808,VALID,18.6462,VALID,113,VALID,1.01161,
2002-04-18, 01:45:00,VALID,916.592,VALID,0,VALID,98.8444,VALID,-0.0679233,VALID,18.6824,VALID,111,VALID,1.05099,
2002-04-18, 01:46:00,VALID,916.572,VALID,0,VALID,98.8482,VALID,0,VALID,18.711,VALID,109,VALID,0.932589,
2002-04-18, 01:47:00,VALID,916.551,VALID,0,VALID,98.7808,VALID,-0.0169808,VALID,18.7396,VALID,102,VALID,0.885352,
2002-04-18, 01:48:00,VALID,916.515,VALID,0,VALID,98.6524,VALID,-0.0169808,VALID,18.753,VALID,102,VALID,1.03047,
2002-04-18, 01:49:00,VALID,916.496,VALID,0,VALID,98.6396,VALID,-0.0339617,VALID,18.7857,VALID,121,VALID,1.04147,
2002-04-18, 01:50:00,VALID,916.467,VALID,0,VALID,98.4464,VALID,-0.0849042,VALID,18.7922,VALID,121,VALID,0.900641,
2002-04-18, 01:51:00,VALID,916.442,VALID,0,VALID,98.3319,VALID,-0.0509425,VALID,18.7791,VALID,131,VALID,0.828331,
2002-04-18, 01:52:00,VALID,916.426,VALID,0,VALID,98.1997,VALID,-0.0169808,VALID,18.7689,VALID,132,VALID,0.840583,
2002-04-18, 01:53:00,VALID,916.415,VALID,0,VALID,98.1017,VALID,0,VALID,18.7553,VALID,149,VALID,1.09149,
2002-04-18, 01:54:00,VALID,916.417,VALID,0,VALID,97.9619,VALID,0,VALID,18.749,VALID,158,VALID,1.03265,
2002-04-18, 01:55:00,VALID,916.425,VALID,0,VALID,97.9339,VALID,0.0169808,VALID,18.7255,VALID,152,VALID,1.16776,
2002-04-18, 01:56:00,VALID,916.428,VALID,0,VALID,97.8919,VALID,0.0169808,VALID,18.7394,VALID,157,VALID,0.864104,
2002-04-18, 01:57:00,VALID,916.433,VALID,0,VALID,97.8423,VALID,0,VALID,18.7001,VALID,154,VALID,0.79159,
2002-04-18, 01:58:00,VALID,916.451,VALID,0,VALID,97.8589,VALID,0.0169808,VALID,18.7071,VALID,150,VALID,0.789063,
2002-04-18, 01:59:00,VALID,916.467,VALID,0,VALID,97.8462,VALID,0.0169808,VALID,18.681,VALID,148,VALID,0.74954,
2002-04-18, 02:00:00,VALID,916.469,VALID,0,VALID,97.9339,VALID,0.0169808,VALID,18.675,VALID,140,VALID,0.761068,
2002-04-18, 02:01:00,VALID,916.476,VALID,0,VALID,97.9987,VALID,0,VALID,18.6683,VALID,134,VALID,0.673878,
2002-04-18, 02:02:00,VALID,916.466,VALID,0,VALID,98.0611,VALID,0.0169808,VALID,18.6584,VALID,131,VALID,0.554241,
2002-04-18, 02:03:00,VALID,916.444,VALID,0,VALID,98.1234,VALID,0,VALID,18.6683,VALID,135,VALID,0.390008,
2002-04-18, 02:04:00,VALID,916.42,VALID,0,VALID,98.0649,VALID,0,VALID,18.6561,VALID,134,VALID,0.396429,
2002-04-18, 02:05:00,VALID,916.398,VALID,0,VALID,98.1221,VALID,0.0169808,VALID,18.6395,VALID,128,VALID,0.636328,
2002-04-18, 02:06:00,VALID,916.379,VALID,0,VALID,98.1691,VALID,0,VALID,18.6358,VALID,128,VALID,0.634909,
2002-04-18, 02:07:00,VALID,916.354,VALID,0,VALID,98.2086,VALID,0.0339617,VALID,18.6291,VALID,128,VALID,0.623633,
2002-04-18, 02:08:00,VALID,916.349,VALID,0,VALID,98.2175,VALID,0,VALID,18.6422,VALID,126,VALID,0.716406,
2002-04-18, 02:09:00,VALID,916.346,VALID,0,VALID,98.2365,VALID,0.0509425,VALID,18.6293,VALID,119,VALID,0.751234,
2002-04-18, 02:10:00,VALID,916.348,VALID,0,VALID,98.2531,VALID,0.0339617,VALID,18.636,VALID,117,VALID,0.905428,
2002-04-18, 02:11:00,VALID,916.34,VALID,0,VALID,98.2543,VALID,0.0509425,VALID,18.6293,VALID,121,VALID,1.08717,
2002-04-18, 02:12:00,VALID,916.332,VALID,0,VALID,98.276,VALID,0,VALID,18.6455,VALID,116,VALID,0.660256,
2002-04-18, 02:13:00,VALID,916.325,VALID,0,VALID,98.3154,VALID,0.0169808,VALID,18.6715,VALID,105,VALID,0.784539,
2002-04-18, 02:14:00,VALID,916.314,VALID,0,VALID,98.2709,VALID,0.0339617,VALID,18.6971,VALID,107,VALID,0.967722,
2002-04-18, 02:15:00,VALID,916.339,VALID,0,VALID,98.0115,VALID,0,VALID,18.6748,VALID,80,VALID,0.934743,
2002-04-18, 02:16:00,VALID,916.339,VALID,0,VALID,97.9441,VALID,0.0169808,VALID,18.6489,VALID,72,VALID,1.00042,
2002-04-18, 02:17:00,VALID,916.357,VALID,0,VALID,98.0064,VALID,0.0339617,VALID,18.639,VALID,69,VALID,1.0563,
2002-04-18, 02:18:00,VALID,916.358,VALID,0,VALID,97.9873,VALID,0.0509425,VALID,18.6392,VALID,65,VALID,0.852407,
2002-04-18, 02:19:00,VALID,916.368,VALID,0,VALID,97.9059,VALID,0.0509425,VALID,18.6199,VALID,77,VALID,0.5,
2002-04-18, 02:20:00,VALID,916.367,VALID,0,VALID,97.8652,VALID,0.0169808,VALID,18.6076,VALID,79,VALID,0.366741,
2002-04-18, 02:21:00,VALID,916.368,VALID,0,VALID,97.9682,VALID,0,VALID,18.5906,VALID,85,VALID,0.419819,
2002-04-18, 02:22:00,VALID,916.361,VALID,0,VALID,97.9631,VALID,0.0169808,VALID,18.5908,VALID,89,VALID,0.164286,
2002-04-18, 02:23:00,VALID,916.369,VALID,0,VALID,97.9377,VALID,0.0169808,VALID,18.5876,VALID,126,VALID,0.176367,
2002-04-18, 02:24:00,VALID,916.373,VALID,0,VALID,97.9873,VALID,0,VALID,18.5913,VALID,108,VALID,0.243359,
2002-04-18, 02:25:00,VALID,916.38,VALID,0,VALID,97.8652,VALID,0.0509425,VALID,18.5746,VALID,101,VALID,0.0588942,
2002-04-18, 02:26:00,VALID,916.398,VALID,0,VALID,97.6122,VALID,0.0169808,VALID,18.4907,VALID,101,VALID,0,
2002-04-18, 02:27:00,VALID,916.406,VALID,0,VALID,97.485,VALID,0,VALID,18.4358,VALID,101,VALID,0,
2002-04-18, 02:28:00,VALID,916.398,VALID,0,VALID,97.4596,VALID,0.0169808,VALID,18.3809,VALID,101,VALID,0,
2002-04-18, 02:29:00,VALID,916.398,VALID,0,VALID,97.452,VALID,0.0169808,VALID,18.3421,VALID,101,VALID,0,
2002-04-18, 02:30:00,VALID,916.389,VALID,0,VALID,97.5244,VALID,0.0509425,VALID,18.3096,VALID,101,VALID,0,
2002-04-18, 02:31:00,VALID,916.366,VALID,0,VALID,97.6847,VALID,0.0339617,VALID,18.2907,VALID,101,VALID,0,
2002-04-18, 02:32:00,VALID,916.367,VALID,0,VALID,97.7508,VALID,0.0849042,VALID,18.2773,VALID,101,VALID,0.250617,
2002-04-18, 02:33:00,VALID,916.362,VALID,0,VALID,97.8029,VALID,0.0339617,VALID,18.2678,VALID,130,VALID,0.678539,
2002-04-18, 02:34:00,VALID,916.378,VALID,0,VALID,97.9886,VALID,0.0339617,VALID,18.2577,VALID,121,VALID,0.578758,
2002-04-18, 02:35:00,VALID,916.409,VALID,0,VALID,98.1475,VALID,0.0339617,VALID,18.2775,VALID,108,VALID,0.886949,
2002-04-18, 02:36:00,VALID,916.432,VALID,0,VALID,98.3891,VALID,0,VALID,18.313,VALID,109,VALID,1.1033,
2002-04-18, 02:37:00,VALID,916.434,VALID,0,VALID,98.4959,VALID,-0.0679233,VALID,18.3954,VALID,103,VALID,1.20559,
2002-04-18, 02:38:00,VALID,916.445,VALID,0,VALID,98.4464,VALID,-0.0849042,VALID,18.4014,VALID,103,VALID,1.23214,
2002-04-18, 02:39:00,VALID,916.427,VALID,0,VALID,98.4095,VALID,-0.0679233,VALID,18.4305,VALID,102,VALID,1.45888,
2002-04-18, 02:40:00,VALID,916.403,VALID,0,VALID,98.2442,VALID,-0.0849042,VALID,18.4669,VALID,92,VALID,0.958929,
2002-04-18, 02:41:00,VALID,916.379,VALID,0,VALID,98.075,VALID,-0.0849042,VALID,18.4367,VALID,93,VALID,0.655859,
2002-04-18, 02:42:00,VALID,916.341,VALID,0,VALID,98.0026,VALID,-0.0679233,VALID,18.4247,VALID,90,VALID,0.747523,
2002-04-18, 02:43:00,VALID,916.3,VALID,0,VALID,98.0191,VALID,-0.0849042,VALID,18.4282,VALID,84,VALID,0.921484,
2002-04-18, 02:44:00,VALID,916.276,VALID,0,VALID,98.1768,VALID,-0.0679233,VALID,18.4402,VALID,94,VALID,0.774805,
2002-04-18, 02:45:00,VALID,916.232,VALID,0,VALID,98.295,VALID,-0.0849042,VALID,18.4794,VALID,105,VALID,0.976768,
2002-04-18, 02:46:00,VALID,916.199,VALID,0,VALID,98.3039,VALID,-0.0849042,VALID,18.5216,VALID,104,VALID,0.958676,
2002-04-18, 02:47:00,VALID,916.176,VALID,0,VALID,98.3268,VALID,-0.101885,VALID,18.5703,VALID,106,VALID,1.00843,
2002-04-18, 02:48:00,VALID,916.159,VALID,0,VALID,98.3141,VALID,-0.101885,VALID,18.6051,VALID,111,VALID,0.981571,
2002-04-18, 02:49:00,VALID,916.137,VALID,0,VALID,98.2531,VALID,-0.0849042,VALID,18.654,VALID,112,VALID,0.951275,
2002-04-18, 02:50:00,VALID,916.12,VALID,0,VALID,98.1246,VALID,-0.0509425,VALID,18.6729,VALID,111,VALID,1.0109,
2002-04-18, 02:51:00,VALID,916.111,VALID,0,VALID,98.0738,VALID,-0.0509425,VALID,18.7052,VALID,107,VALID,0.920496,
2002-04-18, 02:52:00,VALID,916.09,VALID,0,VALID,97.9631,VALID,-0.0169808,VALID,18.7497,VALID,110,VALID,1.00591,
2002-04-18, 02:53:00,VALID,916.081,VALID,0,VALID,97.78,VALID,0.0339617,VALID,18.7781,VALID,116,VALID,1.05676,
2002-04-18, 02:54:00,VALID,916.061,VALID,0,VALID,97.5689,VALID,0.0339617,VALID,18.8102,VALID,115,VALID,1.19552,
2002-04-18, 02:55:00,VALID,916.046,VALID,0,VALID,97.3795,VALID,0.0339617,VALID,18.8298,VALID,115,VALID,1.15264,
2002-04-18, 02:56:00,VALID,916.038,VALID,0,VALID,97.1887,VALID,0.0339617,VALID,18.8459,VALID,113,VALID,0.953795,
2002-04-18, 02:57:00,VALID,916.026,VALID,0,VALID,96.9929,VALID,0.0509425,VALID,18.8425,VALID,128,VALID,0.656661,
2002-04-18, 02:58:00,VALID,916.019,VALID,0,VALID,96.9484,VALID,0,VALID,18.8425,VALID,132,VALID,0.612723,
2002-04-18, 02:59:00,VALID,916.029,VALID,0,VALID,96.9662,VALID,0,VALID,18.8457,VALID,116,VALID,0.613086,
2002-04-18, 03:00:00,VALID,916.039,VALID,0,VALID,96.9688,VALID,0.0169808,VALID,18.8586,VALID,113,VALID,0.541211,
2002-04-18, 03:01:00,VALID,916.035,VALID,0,VALID,97.0209,VALID,0,VALID,18.8623,VALID,116,VALID,0.591346,
2002-04-18, 03:02:00,VALID,916.035,VALID,0,VALID,97.0514,VALID,0.0339617,VALID,18.8457,VALID,99,VALID,0.864183,
2002-04-18, 03:03:00,VALID,916.037,VALID,0,VALID,97.0807,VALID,0,VALID,18.8395,VALID,106,VALID,0.952714,
2002-04-18, 03:04:00,VALID,916.017,VALID,0,VALID,97.1964,VALID,0.0169808,VALID,18.8201,VALID,102,VALID,0.991554,
2002-04-18, 03:05:00,VALID,915.986,VALID,0,VALID,97.3324,VALID,0.0339617,VALID,18.794,VALID,113,VALID,1.26891,
2002-04-18, 03:06:00,VALID,915.952,VALID,0,VALID,97.4494,VALID,0,VALID,18.7843,VALID,118,VALID,1.23057,
2002-04-18, 03:07:00,VALID,915.921,VALID,0,VALID,97.4901,VALID,0.0169808,VALID,18.7781,VALID,120,VALID,0.744243,
2002-04-18, 03:08:00,VALID,915.884,VALID,0,VALID,97.5626,VALID,0.0169808,VALID,18.7587,VALID,124,VALID,0.494243,
2002-04-18, 03:09:00,VALID,915.866,VALID,0,VALID,97.6274,VALID,0.0169808,VALID,18.7421,VALID,116,VALID,0.717142,
2002-04-18, 03:10:00,VALID,915.848,VALID,0,VALID,97.691,VALID,0,VALID,18.7264,VALID,103,VALID,1.32665,
2002-04-18, 03:11:00,VALID,915.851,VALID,0,VALID,97.7788,VALID,0.0169808,VALID,18.6971,VALID,102,VALID,1.31273,
2002-04-18, 03:12:00,VALID,915.85,VALID,0,VALID,97.8779,VALID,0.0339617,VALID,18.6849,VALID,105,VALID,1.11263,
2002-04-18, 03:13:00,VALID,915.862,VALID,0,VALID,97.9733,VALID,0.0169808,VALID,18.6683,VALID,107,VALID,0.962941,
2002-04-18, 03:14:00,VALID,915.851,VALID,0,VALID,98.0827,VALID,0.0169808,VALID,18.6584,VALID,117,VALID,0.916518,
2002-04-18, 03:15:00,VALID,915.841,VALID,0,VALID,98.1539,VALID,0.0339617,VALID,18.6683,VALID,123,VALID,0.771176,
2002-04-18, 03:16:00,VALID,915.822,VALID,0,VALID,98.2124,VALID,0,VALID,18.6807,VALID,124,VALID,0.925,
2002-04-18, 03:17:00,VALID,915.822,VALID,0,VALID,98.2404,VALID,0,VALID,18.6971,VALID,125,VALID,0.879687,
2002-04-18, 03:18:00,VALID,915.801,VALID,0,VALID,98.234,VALID,0.0509425,VALID,18.7327,VALID,125,VALID,0.466844,
2002-04-18, 03:19:00,VALID,915.794,VALID,0,VALID,98.1895,VALID,0.0509425,VALID,18.7488,VALID,121,VALID,0.842383,
2002-04-18, 03:20:00,VALID,915.786,VALID,0,VALID,98.0967,VALID,0.0509425,VALID,18.7553,VALID,114,VALID,0.821484,
2002-04-18, 03:21:00,VALID,915.768,VALID,0,VALID,98.0051,VALID,0,VALID,18.7716,VALID,94,VALID,0.869655,
2002-04-18, 03:22:00,VALID,915.779,VALID,0,VALID,97.9377,VALID,-0.0339617,VALID,18.7657,VALID,90,VALID,0.991365,
2002-04-18, 03:23:00,VALID,915.774,VALID,0,VALID,97.9466,VALID,-0.0679233,VALID,18.7922,VALID,91,VALID,1.04174,
2002-04-18, 03:24:00,VALID,915.801,VALID,0,VALID,97.7711,VALID,-0.0849042,VALID,18.8084,VALID,77,VALID,1.13462,
2002-04-18, 03:25:00,VALID,915.786,VALID,0,VALID,97.616,VALID,-0.101885,VALID,18.7987,VALID,86,VALID,1.2097,
2002-04-18, 03:26:00,VALID,915.788,VALID,0,VALID,97.5015,VALID,-0.101885,VALID,18.7987,VALID,90,VALID,1.27549,
2002-04-18, 03:27:00,VALID,915.798,VALID,0,VALID,97.4253,VALID,-0.0679233,VALID,18.7791,VALID,94,VALID,0.952206,
2002-04-18, 03:28:00,VALID,915.804,VALID,0,VALID,97.4901,VALID,-0.0509425,VALID,18.7728,VALID,118,VALID,1.08932,
2002-04-18, 03:29:00,VALID,915.813,VALID,0,VALID,97.4558,VALID,-0.0849042,VALID,18.78,VALID,120,VALID,1.27711,
2002-04-18, 03:30:00,VALID,915.804,VALID,0,VALID,97.4787,VALID,-0.0849042,VALID,18.7664,VALID,109,VALID,1.24155,
2002-04-18, 03:31:00,VALID,915.795,VALID,0,VALID,97.4316,VALID,-0.0679233,VALID,18.7601,VALID,93,VALID,0.940505,
2002-04-18, 03:32:00,VALID,915.792,VALID,0,VALID,97.4024,VALID,-0.0509425,VALID,18.7435,VALID,95,VALID,1.04598,
2002-04-18, 03:33:00,VALID,915.778,VALID,0,VALID,97.5003,VALID,-0.101885,VALID,18.7271,VALID,101,VALID,1.11863,